Regional Weather Roundup
Issued by NWS

Home | Current Version | Previous Version | Text Only | Print | Product List | Glossary On
Versions: 1 2 3 4 5 6 7 8 9 10 11 12 13 14 15 16 17 18 19 20 21 22 23 24 25 26 27
000
ASUS45 KBOU 241307
RWRCO

WEATHER ROUNDUP FOR COLORADO
NATIONAL WEATHER SERVICE DENVER/BOULDER CO
700 AM MDT TUE MAY 24 2016

NOTE: "FAIR" INDICATES FEW OR NO CLOUDS BELOW 12000 FEET WITH NO
SIGNIFICANT WEATHER AND/OR OBSTRUCTIONS TO VISIBILITY.

COZ001>005-013-030-031-241400-
...NORTHWEST COLORADO...

CITY           SKY/WX    TMP DP  RH WIND       PRES   REMARKS
CRAIG          FAIR      35  32  88 CALM      29.94R
HAYDEN         FAIR      41  27  56 E12       29.94S
MEEKER         FAIR      36  31  82 CALM      29.93R
MOUNT WERNER   NOT AVBL
STEAMBOAT SPGS FAIR      36  29  74 CALM      29.96S
WALDEN         FAIR      32  27  80 SE3       30.05R
$$

COZ006>008-011-241400-
...WEST CENTRAL VALLEYS...

CITY           SKY/WX    TMP DP  RH WIND       PRES   REMARKS
GRAND JUNCTION FAIR      54  21  27 SE15      29.86R
MONTROSE       FAIR      51  24  34 SE8       29.96R
EAGLE          SUNNY     36  27  69 CALM      30.03S
RIFLE          FAIR      39  32  76 W7        29.92R
DELTA          FAIR      52  24  33 E3        29.92S
NUCLA          FAIR      52  21  30 E8        30.00R
$$

COZ017>023-064>068-241400-
...SOUTHWEST COLORADO...

CITY           SKY/WX    TMP DP  RH WIND       PRES   REMARKS
DURANGO        FAIR      35  25  66 NE3       30.05R
CORTEZ         FAIR      36  25  64 CALM      29.99R
PAGOSA SPRINGS FAIR      41  24  50 CALM      30.09S
TELLURIDE      FAIR      46  14  28 E9        30.11R
WOLF CREEK PAS FAIR      32  12  43 SW20G29   30.24F WCI  20
$$

COZ009-010-012-014-032>034-037-058>063-241400-
...CENTRAL COLORADO...

CITY           SKY/WX    TMP DP  RH WIND       PRES   REMARKS
ASPEN          FAIR      44  20  38 SE7       30.01R
BUENA VISTA    FAIR      37  24  59 CALM      30.06S
COPPER MTN     NOT AVBL
BERTHOUD PASS  FAIR      30  21  69 SW12      30.22S WCI  21
COTTONWOOD PAS FAIR      46   9  21 CALM      30.12S
GUNNISON       FAIR      32  21  64 CALM      30.10S
KREMMLING      FAIR      34  30  86 CALM      30.06S
LEADVILLE      FAIR      30  19  63 CALM      30.11S
MONARCH PASS   FAIR      32  14  47 SW17      30.32R WCI  21
SALIDA         FAIR      41  22  47 CALM      30.12S
SUNLIGHT       PTSUNNY   36  18  48 CALM      30.16R
WILKERSON PASS FAIR      36  18  48 S3        30.21R
$$

COZ069>075-241400-
...SAN LUIS VALLEY/SANGRE DE CRISTO MOUNTAINS...

CITY           SKY/WX    TMP DP  RH WIND       PRES   REMARKS
ALAMOSA        FAIR      45  23  42 CALM      30.06R
LA VETA PASS   FAIR      41  14  33 S13G18    30.16S
SAGUACHE       FAIR      39  23  52 N8        30.09R
$$

COZ035-036-038>040-241400-
...NORTHERN COLORADO FRONT RANGE...

CITY           SKY/WX    TMP DP  RH WIND       PRES   REMARKS
DENVER INTL AP FAIR      43  40  89 S8        29.97R
DMNS CITY PARK   N/A     51  41  68 SE9       29.97R
AURORA         MOSUNNY   46  45  97 S7        29.98R
FRONT RANGE AP PTSUNNY   45  45 100 S7        29.99
ERIE MUNI ARPT FAIR      45  43  91 CALM      29.96R
BOULDER MUN AP FAIR      48  41  76 CALM      29.95S
CENTENNIAL     FAIR      48  41  76 SE6       29.98R
BROOMFIELD     MOSUNNY   50  41  71 NW6       29.97R
FORT COLLINS   FAIR      46  43  87 CALM      29.96R
LONGMONT       FAIR      49  44  84 CALM      29.97S
$$

COZ041-046-047-076>085-087-088-241400-
...PIKES PEAK/PALMER DIVIDE AND SOUTHERN FOOTHILLS...

CITY           SKY/WX    TMP DP  RH WIND       PRES   REMARKS
COLO. SPRINGS  FAIR      54  43  66 N3        29.98S
A. F. ACADEMY  FAIR      45  37  76 N12       29.98S
SCHRIEVER AFB  NOT AVBL
ELLICOTT       FAIR     N/A N/A N/A E17       29.98R
FALCON         FAIR      52  39  61 NE7       30.01S
FORT CARSON    FAIR      52  40  63 N6        29.95S
LIMON          FAIR      52  41  66 E7        29.98R
MONUMENT HILL  FAIR      43  41  93 CALM      30.03R
TRINIDAD       FAIR      49  28  44 W9        29.95R
$$

COZ042>045-048>051-090-091-241400-
...NORTHEAST COLORADO...

CITY           SKY/WX    TMP DP  RH WIND       PRES   REMARKS
GREELEY ARPT   PTSUNNY   45  39  81 CALM      29.96R
AKRON          FAIR      50  44  80 CALM      29.97R
BURLINGTON     FAIR      56  46  69 E14       29.92S
WRAY           PTSUNNY   54  54 100 N7        29.94R
STERLING       CLOUDY    50  45  81 CALM      29.94R
HOLYOKE        LGT RAIN  54  46  76 NW6       29.96R
FORT MORGAN    CLOUDY    50  44  78 CALM      29.96S
$$

COZ086-089-092>099-241400-
...SOUTHEAST COLORADO...

CITY           SKY/WX    TMP DP  RH WIND       PRES   REMARKS
PUEBLO         FAIR      55  44  66 E3        29.94R
LA JUNTA       CLOUDY    57  44  62 N9        29.92R
LAMAR          FAIR      57  47  69 CALM      29.87R
SPRINGFIELD      N/A     56  41  57 NW20G28   29.87R
$$




USA.gov is the U.S. government's official web portal to all federal, state and local government web resources and services.